Погода в Сулеймановом

Россия / Курганская область     54°45′54″N   62°32′57″E
темп.,
°C
ветер,
м/с
пор.,
м/с
влажн.,
%
обл.,
%
осадки,
мм/ч
давл.,
гПа
погр.,
м
18 апреля, вс
вс1823:00+8юв227316 0.0 102021
02:00+7зсз227893 0.0 101817
05:00+4с47764 0.0 1018116
08:00+6ссз46635 0.0 1017228
11:00+10ссз79475 0.0 10161288
14:00+7ссв11116479 0.0 1019949
17:00+5ссв101138100 0.0 10221504
20:00+2св811411 0.0 10261221
19 апреля, пн
пн1923:00−1св610430 0.0 1029784
02:00−2всв69430 0.0 10311026
05:00−3всв58460 0.0 1033955
08:00−3св57400 0.0 10341023
11:000св67330 0.0 10341476
14:00+1св67295 0.0 10331821
17:00+2св67305 0.0 10331931
20:000св47380 0.0 1034225
20 апреля, вт
вт2023:00−2всв24430 0.0 1035102
02:00−2в11430 0.0 103512
05:00−3зсз12430 0.0 103513
08:000сз34360 0.0 1036439
11:00+3сз33315 0.0 10351368
14:00+6зсз44295 0.0 10331586
17:00+7зсз46280 0.0 10311710
20:00+5зюз35430 0.0 103072
21 апреля, ср
ср2123:00+3зсз48550 0.0 1030142
02:00+2сз49640 0.0 1030159
05:00+1сз47720 0.0 1031133
08:00+3ссз46620 0.0 1032275
11:00+8ссз34460 0.0 1032930
14:00+11с34395 0.0 10321569
17:00+12ссв33385 0.0 10311652
20:00+9всв22495 0.0 103312
22 апреля, чт
чт2223:00+7вюв36635 0.0 1034115
02:00+5ююв36705 0.0 1035101
05:00+4ююв36740 0.0 103684
08:00+7ююв46630 0.0 1037275
11:00+11ю55450 0.0 10371162
14:00+14ю55375 0.0 10361783
17:00+14ю5535100 0.0 10352035
20:00+11ююв3648100 0.0 1035130